CZ-6A DEB, 54628

Orbit data source: Space-Track

CZ-6A DEB, 54628 is space debris in SSO originally from a launch on Fri, 11 Nov 2022 UTC launched from the Taiyaun Space Center, China (TSC). Debris objects in space refer to the collection of defunct objects orbiting the Earth. Examples of debris include non-operational satellites, rocket bodies, and fragments generated from explosions, collisions, or faulty payload assembly.

Loading next visibility...
Identifier
54628, 2022-151PE
Orbit
SSO
Country
Flag of CNCN / PRC
Related business
Manufacturer
SAST
Mission
Spacecraft
Bus & Motor
Unknown
Mass
Unknown
Launch date (UTC)
2022-11-11 (4 years ago)
Launch vehicle
Unknown
Launch site
Taiyaun Space Center, China (TSC)
Object type
Payload
Rocket body
Debris
Shape & HBR
Unknown shape, 0.1 m
Radar Cross Section
Medium (>0.1 m² and <1 m²)

Expand to show TLE details & history
Last TLE update: 2 days ago

TLE from 2 days ago
0 CZ-6A DEB
1 54628U 22151PE  26171.40542404  .00000160  00000-0  16622-3 0  9993
2 54628  98.9455 116.6233 0184619 150.5706 210.5996 13.81010741180380
Epoch: 2026-06-20T09:43Z
TLE epoch observation values (Epoch: 2026-06-20T09:43:48.637Z)
Latitude
-0.00002°
Longitude
62.05013°
Altitude
1,080.43 km
Speed
7.253 km/s
True Right ascension
07h 46m 29s
True Declination
0° 00' 00"
Sunlit
Object was in daylight at epoch
Visualization orbit readout
Latitude
Unknown
Longitude
Unknown
Altitude
Unknown
Speed
Unknown
Apparent Right ascension
Unknown
Apparent Declination
Unknown
Sunlit
N/A
Visualization observer readout
Local Sidereal Time
21:54:15
Azimuth
Unknown
Elevation
Unknown
Doppler factor
Unknown
Orbital elements
Apogee altitude
1,092.955 km
Perigee altitude
822.094 km
Semi-major axis
7,335.662 km
Eccentricity
0.01846
Inclination
98.9455°
RAAN
116.6233°
Arg. of periapsis
150.5706°
True anomaly
209.54375°
Mean anomaly
210.5996°
Eccentric anomaly
210.06959°
Mean motion
3.45449 °/min
Orbital period
104.21 mins
BSTAR
0.00016622
Loading maneuver chart data...
Computing Atmospheric mass density...
Loading historical data...
Loading historical data...
Loading historical data...
Loading historical data...
Loading historical data...
Loading historical data...
Loading historical data...

Documentation

Showing up to 5 results
|